sim
Sign-in with your pilot id or email,
or register
Callsign
Passwort

Schedule Details

Flight Number: RYR3805 (2)
Departure: Manchester Airport (EGCC) at 07:15
Arrival: Fuerteventura Airport (GCFV) at 11:30
Route: Ryanair Passenger Schedule. Enter filed route here before submitting Pirep.

Weather Information
Getting current METAR information for EGCC 182050Z AUTO 08004KT 050V110 9999 NCD 13/06 Q1027
Getting current METAR information for GCFV 182030Z 36014KT 9999 FEW045 18/11 Q1019

Schedule Frequency

Route Map